Header for Extended Forecast Station List Page

Search by: ID | Name | Date | Parm | Value | Avg | % Avg
Sort by: ID | Name | Date | Parm | Value | Avg | % Avg

Enter search or view all records.

Click on id for station plot
#IDNameDateParmValueAvg% Avg
0ABOM8CLARK FORK-ABOVE MISSOULA02-20-2018DISCHARGE (KAF)17381162150
1AFRI1SNAKE-AMERICAN FALLS RESERVOIR02-20-2018INFLOW (KAF)31862311138
2ALFW1PEND OREILLE-ALBENI FALLS DAM02-20-2018INFLOW (KAF)111359496117
3ALPW4SNAKE-NEAR ALPINE02-20-2018DISCHARGE (KAF)17781302137
4ANAW1SNAKE-NEAR ANATONE02-20-2018DISCHARGE (KAF)110891251089
5ANTI1HENRYS FORK-AT ST. ANTHONY02-20-2018DISCHARGE (KAF)690602115
6ARAI1SF BOISE-ANDERSON RANCH DAM02-20-2018INFLOW (KAF)37744585
7ARDW1ENTIAT-NEAR ARDENVOIR02-20-2018DISCHARGE (KAF)167143117
8BELM8CLARK FORK-BELOW MISSOULA02-20-2018DISCHARGE (KAF)29412146137
9BERO3MALHEUR-AGENCY VALLEY DAM02-20-2018INFLOW (KAF)335263
10BFEI1KOOTENAI-AT BONNERS FERRY02-20-2018STAGE (FT)MMM
11BFTI1SNAKE-NEAR BLACKFOOT02-20-2018DISCHARGE (KAF)26021642158
12BIGI1BOISE-AT GLENWOOD BRIDGE02-20-2018DISCHARGE (KAF)32935593
13BITM8BITTERROOT-NEAR MISSOULA02-20-2018DISCHARGE (KAF)1203960125
14BONM8BLACKFOOT-NEAR BONNER02-20-2018DISCHARGE (KAF)1108638174
15BONO3COLUMBIA-BONNEVILLE DAM02-20-2018INFLOW (KAF)5725456473101
16BRNI1SNAKE-BROWNLEE DAM02-20-2018INFLOW (KAF)5331578792
17BUDW1BUMPING-BUMPING LAKE DAM02-20-2018INFLOW (KAF)11195116
18BULO3BULLY CREEK-BULLY CREEK DAM02-20-2018INFLOW (KAF)88104
19CABI1CLARK FORK-CABINET GORGE DAM02-20-2018INFLOW (KAF)97057879123
20CFMM8FLATHEAD-AT COLUMBIA FALLS02-20-2018DISCHARGE (KAF)43803264134
21CHDW1CHELAN-LAKE CHELAN DAM02-20-2018INFLOW (KAF)770718107
22CHEI1FALL RIVER-NEAR CHESTER02-20-2018DISCHARGE (KAF)341291117
23CHJW1COLUMBIA-CHIEF JOSEPH DAM02-20-2018INFLOW (KAF)2976727850107
24CIBW1COLUMBIA-AT INTL BOUNDARY02-20-2018DISCHARGE (KAF)26368MM
25CLFW1NACHES-NEAR CLIFFDEL02-20-2018DISCHARGE (KAF)371321115
26CLUW1CLE ELUM-CLE ELUM LAKE02-20-2018INFLOW (KAF)337319106
27COEI1COEUR D ALENE-COEUR D ALENE LAKE02-20-2018INFLOW (KAF)31922816113
28CSDI1NF PAYETTE-CASCADE DAM02-20-2018INFLOW (KAF)42245593
29DEDI1DEADWOOD-NEAR LOWMAN02-20-2018INFLOW (KAF)10610899
30DLGM8CLARK FORK-AT DEER LODGE02-20-2018DISCHARGE (KAF)818299
31DRMM8CLARK FORK-NR DRUMMOND02-20-2018DISCHARGE (KAF)293MM
32DWRI1NF CLEARWATER-DWORSHAK DAM02-20-2018INFLOW (KAF)31052572121
33EASW1YAKIMA-AT EASTON02-20-2018DISCHARGE (KAF)11699117
34EMMI1PAYETTE-NEAR EMMETT02-20-2018DISCHARGE (KAF)1031112392
35FCFM8NF FLATHEAD-NEAR COLUMBIA FALLS02-20-2018DISCHARGE (KAF)14231184120
36GCDW1COLUMBIA-GRAND COULEE DAM02-20-2018INFLOW (KAF)3143930835102
37GIBO3UMATILLA-NEAR GIBBON02-20-2018DISCHARGE (KAF)9683116
38HALI1BIG WOOD-AT HAILEY02-20-2018DISCHARGE (KAF)183166110
39HEII1SNAKE-NEAR HEISE02-20-2018DISCHARGE (KAF)29881941154
40HHWM8SF FLATHEAD-HUNGRY HORSE DAM02-20-2018INFLOW (KAF)20261543131
41HODO3HOOD-NEAR TUCKER BRIDGE02-20-2018DISCHARGE (KAF)26427098
42HOPI1PEND OREILLE-PEND OREILLE LAKE NR HOPE02-20-2018LAKE ELEVATION (FT)MMM
43HOTI1BRUNEAU-NEAR HOT SPRINGS02-20-2018DISCHARGE (KAF)10516863
44HWRI1BIG LOST-AT HOWELL RANCH NEAR CHILLY02-20-2018DISCHARGE (KAF)115102113
45IHDW1SNAKE-ICE HARBOR DAM02-20-2018INFLOW (KAF)188061907999
46IPDI1HENRYS FORK-ISLAND PARK DAM02-20-2018INFLOW (KAF)209179117
47JDAO3COLUMBIA-JOHN DAY DAM02-20-2018INFLOW (KAF)556915674598
48JKSW4SNAKE-NEAR JACKSON02-20-2018DISCHARGE (KAF)1410989143
49JLKW4SNAKE-JACKSON LAKE AT DAM02-20-2018INFLOW (KAF)740543136
50KADW1KACHESS-KACHESS DAM02-20-2018INFLOW (KAF)102100102
51KEDW1YAKIMA-KEECHELUS LAKE02-20-2018INFLOW (KAF)118106112
52KERM8FLATHEAD-KERR DAM02-20-2018INFLOW (KAF)52044129126
53KIOW1YAKIMA-AT KIONA02-20-2018DISCHARGE (KAF)10271016101
54LAUW1KETTLE-AT LAURIER02-20-2018DISCHARGE (KAF)14681463100
55LEOI1KOOTENAI-AT LEONIA02-20-2018DISCHARGE (KAF)43403819114
56LGDW1SNAKE-LOWER GRANITE DAM02-20-2018INFLOW (KAF)183961896297
57LGSW1SNAKE-LITTLE GOOSE DAM02-20-2018INFLOW (KAF)183961899597
58LLKW1SPOKANE-AT LONGLAKE02-20-2018INFLOW (KAF)34823388103
59LMNW1SNAKE-LOWER MONUMENTAL DAM02-20-2018INFLOW (KAF)188061920298
60LUCI1BOISE-LUCKY PEAK DAM02-20-2018INFLOW (KAF)892MM
61LWRI1LITTLE WOOD-LITTLE WOOD DAM02-20-2018INFLOW (KAF)466867
62LYDM8KOOTENAI-LIBBY DAM02-20-2018INFLOW (KAF)38603756103
63MACI1BIG LOST-MACKAY RESERVOIR NEAR MACKAY02-20-2018INFLOW (KAF)10010496
64MAGI1BIG WOOD-MAGIC DAM02-20-2018INFLOW (KAF)17321281
65MCDW1COLUMBIA-MCNARY DAM02-20-2018INFLOW (KAF)535715416999
66MILI1SNAKE-AT MILNER02-20-2018DISCHARGE (KAF)1043634164
67MODO3DESCHUTES-AT MOODY NR BIGGS02-20-2018DISCHARGE (KAF)1447152795
68MONO3NF JOHN DAY-AT MONUMENT02-20-2018DISCHARGE (KAF)46662575
69MYKO3MCKAY CREEK-NEAR PILOT ROCK02-20-2018DISCHARGE (KAF)5035141
70NACW1NACHES-NEAR NACHES02-20-2018DISCHARGE (KAF)576411140
71NOXM8CLARK FORK-NOXON RAPIDS DAM02-20-2018INFLOW (KAF)87977509117
72ORFI1CLEARWATER-AT OROFINO02-20-2018DISCHARGE (KAF)49154141119
73OWYO3OWYHEE-OWYHEE DAM02-20-2018INFLOW (KAF)20336056
74PARI1BOISE-NEAR PARMA02-20-2018DISCHARGE (KAF)36541987
75PARW1YAKIMA-NEAR PARKER02-20-2018DISCHARGE (KAF)777636122
76PATW1METHOW-NEAR PATEROS02-20-2018DISCHARGE (KAF)807651124
77PDTO3UMATILLA-AT PENDLETON02-20-2018DISCHARGE (KAF)217185118
78PESW1WENATCHEE-AT PESHASTIN02-20-2018DISCHARGE (KAF)11841097108
79PIHI1PORTNEUF-AT POCATELLO02-20-2018DISCHARGE (KAF)7610076
80PITW1KLICKITAT-NEAR PITT02-20-2018DISCHARGE (KAF)52052998
81PLDI1SF SNAKE-PALISADES DAM02-20-2018INFLOW (KAF)25502000128
82PRTI1PRIEST-NEAR PRIEST RIVER02-20-2018DISCHARGE (KAF)782716109
83PRWW1COLUMBIA-PRIEST RAPIDS DAM02-20-2018INFLOW (KAF)3357132971102
84RCCM8ROCK CREEK-NEAR CLINTON02-20-2018DISCHARGE (KAF)277193143
85REXI1HENRYS FORK-AT REXBURG02-20-2018DISCHARGE (KAF)790704112
86RIDI1WILLOW CREEK-RIRIE DAM02-20-2018INFLOW (KAF)304370
87RILW1TIETON-RIMROCK LAKE NEAR RIMROCK02-20-2018INFLOW (KAF)176157112
88RRHW1COLUMBIA-ROCKY REACH DAM02-20-2018INFLOW (KAF)3240130207107
89SATI1ST MARIES-NEAR SANTA02-20-2018DISCHARGE (KAF)168150112
90SERO3JOHN DAY-AT SERVICE CK02-20-2018DISCHARGE (KAF)62489969
91SHYI1SNAKE-NEAR SHELLEY02-20-2018DISCHARGE (KAF)29211927152
92SIFI1SNAKE-AB EAGLE ROCK NR IDAHO FALLS02-20-2018DISCHARGE (KAF)30431947156
93SJMI1ST JOE-AT ST MARIES02-20-2018STAGE (FT)MMM
94SNAI1SNAKE-AT BLACKFOOT02-20-2018DISCHARGE (KAF)26211666157
95SPDI1CLEARWATER-AT SPALDING02-20-2018DISCHARGE (KAF)73086451113
96SPOW1SPOKANE-AT SPOKANE02-20-2018DISCHARGE (KAF)3152MM
97SRGM8CLARK FORK-AT ST REGIS02-20-2018DISCHARGE (KAF)37992917130
98STRM8ST. REGIS-NEAR ST. REGIS02-20-2018DISCHARGE (KAF)297237125
99SWAI1SNAKE-BELOW SWAN FALLS02-20-2018DISCHARGE (KAF)28462671107
100TCHW1WALLA WALLA-NEAR TOUCHET02-20-2018DISCHARGE (KAF)241187129
101TDAO3COLUMBIA-THE DALLES DAM02-20-2018INFLOW (KAF)5613054215104
102TEAI1TETON-NEAR ST. ANTHONY02-20-2018DISCHARGE (KAF)292256114
103TNAW1TEANAWAY-BELOW FORKS02-20-2018DISCHARGE (KAF)164132124
104TONW1OKANOGAN-NEAR TONASKET02-20-2018DISCHARGE (KAF)13191167113
105TRYO3GRANDE RONDE-TROY02-20-2018DISCHARGE (KAF)1214123598
106UMAO3UMATILLA-NEAR UMATILLA02-20-2018DISCHARGE (KAF)198144137
107UMTW1YAKIMA-AT UMTANUM02-20-2018DISCHARGE (KAF)709634112
108UNDW1WHITE SALMON-NEAR UNDERWOOD02-20-2018DISCHARGE (KAF)34835598
109VALO3MALHEUR-NEAR VALE02-20-2018DISCHARGE (KAF)376161
110WANW1COLUMBIA-WANAPUM DAM02-20-2018INFLOW (KAF)3357532392104
111WEII1SNAKE-AT WEISER02-20-2018DISCHARGE (KAF)4891534991
112WELW1COLUMBIA-WELLS DAM02-20-2018INFLOW (KAF)3187329772107
113WGCM8MF FLATHEAD-NEAR WEST GLACIER02-20-2018DISCHARGE (KAF)14711156127
114WHBI1SALMON-AT WHITEBIRD02-20-2018DISCHARGE (KAF)48334483108
115WRMO3MALHEUR-WARM SPRINGS DAM02-20-2018INFLOW (KAF)467066
116WSRI1WEISER-NEAR WEISER02-20-2018DISCHARGE (KAF)35043680